This is the latest recevied weather packets stored in our database for station/object K5GHS-1. If no packets are shown the sender has not sent any weather packets the latest 10 day(s).
| Time | Temp. | Humidity | Pressure | Rain* | Wind** | Luminosity | Snow |
|---|---|---|---|---|---|---|---|
| 1787940261 | 36.67° C | 37% | 1016.4 hPa | 0 mm | - | 677 W/m² | - |
| 1787939956 | 36.67° C | 38% | 1016.5 hPa | 0 mm | - | 679 W/m² | - |
| 1787939654 | 37.22° C | 36% | 1016.7 hPa | 0 mm | - | 669 W/m² | - |
| 1787939350 | 37.22° C | 40% | 1016.6 hPa | 0 mm | - | 630 W/m² | - |
| 1787939044 | 37.22° C | 41% | 1016.7 hPa | 0 mm | - | 632 W/m² | - |
| 1787938743 | 36.67° C | 39% | 1016.7 hPa | 0 mm | - | 661 W/m² | - |
| 1787938440 | 37.22° C | 40% | 1016.7 hPa | 0 mm | - | 683 W/m² | - |
| 1787938135 | 37.22° C | 43% | 1017.1 hPa | 0 mm | - | 643 W/m² | - |
| 1787937829 | 37.22° C | 43% | 1017 hPa | 0 mm | - | 668 W/m² | - |
| 1787937526 | 37.78° C | 43% | 1017.1 hPa | 0 mm | - | 715 W/m² | - |
| 1787937222 | 37.22° C | 42% | 1016.8 hPa | 0 mm | - | 684 W/m² | - |
| 1787936917 | 36.67° C | 44% | 1017.3 hPa | 0 mm | - | 649 W/m² | - |
| 1787936615 | 36.67° C | 44% | 1017.3 hPa | 0 mm | - | 668 W/m² | - |
| 1787936315 | 36.67° C | 43% | 1017 hPa | 0 mm | - | 703 W/m² | - |
| 1787936011 | 36.11° C | 44% | 1017 hPa | 0 mm | - | 682 W/m² | - |
| 1787935706 | 36.11° C | 46% | 1017.2 hPa | 0 mm | - | 664 W/m² | - |
| 1787935402 | 36.67° C | 46% | 1017.2 hPa | 0 mm | - | 663 W/m² | - |
| 1787935098 | 36.11° C | 49% | 1017.2 hPa | 0 mm | - | 667 W/m² | - |
| 1787934794 | 35.56° C | 50% | 1017.2 hPa | 0 mm | - | 679 W/m² | - |
| 1787934493 | 35° C | 49% | 1017.2 hPa | 0 mm | - | 706 W/m² | - |
| 1787934187 | 35.56° C | 49% | 1017.2 hPa | 0 mm | - | 735 W/m² | - |
| 1787933894 | 35° C | 51% | 1017.2 hPa | 0 mm | - | 759 W/m² | - |
| 1787933580 | 35.56° C | 52% | 1017.1 hPa | 0 mm | - | 740 W/m² | - |
| 1787933275 | 35° C | 53% | 1017.1 hPa | 0 mm | - | 665 W/m² | - |
| 1787932975 | 35° C | 54% | 1017.1 hPa | 0 mm | - | 656 W/m² | - |
* Rain latest hour (hover to see other rain measurements)
** Current wind speed in m/s (hover to see current wind gust speed)